Charlevoix, MI

10:14 PM EST on December 04, 2016 (GMT -0500)
Charlevoix Municipal

Weather History for KCVX - December, 2012

Change the Weather History Date:

Tuesday, December 4, 2012

  Actual Average Record
Temperature  
Mean Temperature 44 °F -  
Max Temperature 58 °F 43 °F 58 °F (2012)
Min Temperature 30 °F 31 °F 19 °F (2003)
Degree Days  
Heating Degree Days 21    
Moisture  
Dew Point 33 °F    
Average Humidity 70    
Maximum Humidity 87    
Minimum Humidity 59    
Precipitation  
Precipitation 0.00 in - - ()
Sea Level Pressure  
Sea Level Pressure 29.95 in    
Wind  
Wind Speed 17 mph (West)    
Max Wind Speed 24 mph    
Max Gust Speed 32 mph    
Visibility 10 miles    
Events      
Averages and records for this station are not official NWS values.
T = Trace of Precipitation, MM = Missing Value Source: NWS Daily Summary

Daily Weather History Graph

Daily Weather History Graph

Search for Another Location

Airport or City:

Trip Planner

Search our weather history database for the weather conditions in past years. The results will help you decide how hot, cold, wet, or windy it might be!

Date:

Astronomy

Dec. 04, 2012 Rise Set
Actual Time 8:04 AM EST 4:58 PM EST
Civil Twilight 7:30 AM EST 5:32 PM EST
Nautical Twilight 6:53 AM EST 6:09 PM EST
Astronomical Twilight 6:17 AM EST 6:45 PM EST
Moon 10:56 PM EST (12/4) 11:48 AM EST (12/4)
Length of Visible Light 10h 02m
Length of Day
8h 54m
Waning Gibbous, 69% of the Moon is Illuminated
Dec 4
Waning Gibbous
Dec 6
Last Quarter
Dec 13
New
Dec 20
First Quarter
Dec 28
Full

Hourly Weather History & Observations

Time (EST) Temp. Windchill Dew Point Humidity Pressure Visibility Wind Dir Wind Speed Gust Speed Precip Events Conditions
12:15 AM 58.8 °F - 53.8 °F 83% 29.70 in 10.0 mi WSW 23.0 mph 31.1 mph N/A   Mostly Cloudy
12:35 AM 57.4 °F - 52.7 °F 84% 29.71 in 10.0 mi WSW 18.4 mph 31.1 mph N/A   Overcast
12:55 AM 55.8 °F - 51.4 °F 85% 29.73 in 7.0 mi WSW 24.2 mph 32.2 mph N/A   Overcast
1:15 AM 53.8 °F - 49.3 °F 85% 29.74 in 7.0 mi WSW 17.3 mph 29.9 mph N/A   Overcast
1:35 AM 52.3 °F - 48.2 °F 86% 29.76 in 7.0 mi WSW 17.3 mph 25.3 mph N/A   Mostly Cloudy
1:54 AM 50.9 °F - 46.9 °F 86% 29.77 in 10.0 mi WSW 16.1 mph - N/A   Scattered Clouds
2:15 AM 50.0 °F - 45.7 °F 85% 29.79 in 10.0 mi WSW 13.8 mph 21.9 mph N/A   Clear
2:35 AM 49.1 °F - 45.5 °F 87% 29.80 in 10.0 mi WSW 13.8 mph 18.4 mph N/A   Clear
2:55 AM 48.2 °F - 44.6 °F 87% 29.82 in 10.0 mi WSW 11.5 mph 17.3 mph N/A   Clear
3:15 AM 48.2 °F - 41.9 °F 79% 29.83 in 10.0 mi West 18.4 mph 26.5 mph N/A   Clear
3:55 AM 46.8 °F - 40.8 °F 80% 29.84 in 10.0 mi WSW 12.7 mph - N/A   Clear
4:15 AM 46.4 °F 40.4 °F 38.7 °F 74% 29.85 in 10.0 mi WSW 13.8 mph - N/A   Clear
4:35 AM 45.7 °F 40.6 °F 38.8 °F 77% 29.84 in 10.0 mi WSW 10.4 mph - N/A   Clear
4:55 AM 45.7 °F 39.8 °F 39.0 °F 78% 29.84 in 10.0 mi SW 12.7 mph 19.6 mph N/A   Clear
5:15 AM 45.1 °F 39.9 °F 38.3 °F 77% 29.85 in 10.0 mi SW 10.4 mph 17.3 mph N/A   Clear
5:35 AM 44.6 °F 39.2 °F 37.8 °F 77% 29.85 in 10.0 mi SW 10.4 mph - N/A   Clear
5:55 AM 44.6 °F 39.2 °F 39.0 °F 81% 29.86 in 10.0 mi SW 10.4 mph 17.3 mph N/A   Clear
6:15 AM 44.4 °F 38.2 °F 37.9 °F 78% 29.85 in 10.0 mi WSW 12.7 mph - N/A   Clear
6:35 AM 44.6 °F 38.1 °F 37.4 °F 76% 29.86 in 10.0 mi SW 13.8 mph 19.6 mph N/A   Clear
6:55 AM 44.6 °F 38.4 °F 36.5 °F 73% 29.87 in 10.0 mi SW 12.7 mph 20.7 mph N/A   Clear
7:15 AM 44.1 °F 38.1 °F 36.7 °F 75% 29.88 in 10.0 mi SW 11.5 mph 17.3 mph N/A   Clear
7:35 AM 44.1 °F 37.4 °F 36.5 °F 75% 29.89 in 10.0 mi WSW 13.8 mph 19.6 mph N/A   Clear
7:52 AM 44.1 °F 37.7 °F 36.5 °F 75% 29.90 in 10.0 mi WSW 12.7 mph - N/A   Clear
8:15 AM 44.2 °F 37.6 °F 36.5 °F 74% 29.89 in 10.0 mi SW 13.8 mph 19.6 mph N/A   Clear
8:35 AM 44.2 °F 38.0 °F 36.7 °F 75% 29.90 in 10.0 mi SW 12.7 mph 18.4 mph N/A   Clear
8:55 AM 44.6 °F 39.2 °F 36.5 °F 73% 29.91 in 10.0 mi WSW 10.4 mph 19.6 mph N/A   Clear
9:15 AM 44.8 °F 39.0 °F 35.8 °F 71% 29.91 in 10.0 mi WSW 11.5 mph - N/A   Clear
9:35 AM 45.0 °F 38.2 °F 35.6 °F 70% 29.92 in 10.0 mi WSW 15.0 mph 24.2 mph N/A   Clear
9:56 AM 45.1 °F 38.1 °F 35.2 °F 68% 29.92 in 10.0 mi WSW 16.1 mph 23.0 mph N/A   Clear
10:15 AM 45.1 °F 39.5 °F 35.6 °F 69% 29.92 in 10.0 mi WSW 11.5 mph 19.6 mph N/A   Clear
10:35 AM 45.1 °F 38.8 °F 34.9 °F 67% 29.92 in 10.0 mi WSW 13.8 mph 23.0 mph N/A   Clear
10:55 AM 44.8 °F 38.0 °F 35.2 °F 69% 29.92 in 10.0 mi WSW 15.0 mph 20.7 mph N/A   Clear
11:15 AM 44.6 °F 37.8 °F 33.6 °F 65% 29.92 in 10.0 mi West 15.0 mph 24.2 mph N/A   Clear
11:35 AM 44.6 °F 37.2 °F 33.8 °F 66% 29.91 in 10.0 mi WSW 17.3 mph 26.5 mph N/A   Clear
11:55 AM 45.7 °F 38.8 °F 34.0 °F 64% 29.91 in 10.0 mi WSW 16.1 mph 27.6 mph N/A   Clear
12:15 PM 46.4 °F 39.2 °F 34.0 °F 62% 29.91 in 10.0 mi WSW 18.4 mph 28.8 mph N/A   Scattered Clouds
12:35 PM 46.0 °F 38.0 °F 32.9 °F 60% 29.90 in 10.0 mi West 21.9 mph 26.5 mph N/A   Clear
1:15 PM 45.7 °F 37.8 °F 32.9 °F 61% 29.90 in 10.0 mi West 20.7 mph 28.8 mph N/A   Clear
1:35 PM 45.5 °F 38.1 °F 32.5 °F 61% 29.91 in 10.0 mi West 18.4 mph 27.6 mph N/A   Scattered Clouds
1:55 PM 44.2 °F 35.9 °F 32.0 °F 62% 29.91 in 10.0 mi WSW 20.7 mph - N/A   Scattered Clouds
2:15 PM 45.5 °F 38.1 °F 32.2 °F 60% 29.92 in 10.0 mi West 18.4 mph 25.3 mph N/A   Mostly Cloudy
2:35 PM 43.3 °F 35.5 °F 32.2 °F 65% 29.92 in 10.0 mi West 17.3 mph 26.5 mph N/A   Mostly Cloudy
2:55 PM 43.2 °F 34.5 °F 32.0 °F 65% 29.92 in 10.0 mi West 20.7 mph - N/A   Overcast
3:15 PM 42.8 °F 35.1 °F 31.8 °F 65% 29.93 in 10.0 mi West 16.1 mph 24.2 mph N/A   Mostly Cloudy
3:35 PM 42.8 °F 35.1 °F 31.8 °F 65% 29.94 in 10.0 mi West 16.1 mph 25.3 mph N/A   Overcast
3:55 PM 42.3 °F 34.1 °F 31.8 °F 67% 29.95 in 10.0 mi West 17.3 mph - N/A   Overcast
4:15 PM 42.1 °F 33.6 °F 31.1 °F 65% 29.96 in 10.0 mi West 18.4 mph 24.2 mph N/A   Overcast
4:35 PM 41.7 °F 33.1 °F 29.7 °F 62% 29.97 in 10.0 mi West 18.4 mph 27.6 mph N/A   Mostly Cloudy
4:55 PM 41.9 °F 33.4 °F 29.1 °F 61% 29.98 in 10.0 mi WNW 18.4 mph 25.3 mph N/A   Overcast
5:14 PM 41.5 °F 34.2 °F 29.3 °F 62% 29.99 in 10.0 mi WNW 13.8 mph 18.4 mph N/A   Overcast
5:35 PM 39.2 °F 31.2 °F 32.0 °F 75% 30.01 in 10.0 mi NNW 13.8 mph - N/A   Overcast
5:55 PM 37.8 °F 29.4 °F 30.6 °F 75% 30.02 in 10.0 mi NNW 13.8 mph 19.6 mph N/A   Mostly Cloudy
6:15 PM 37.0 °F 28.5 °F 28.6 °F 71% 30.04 in 10.0 mi NW 13.8 mph 21.9 mph N/A   Scattered Clouds
6:35 PM 37.0 °F 27.4 °F 28.6 °F 71% 30.05 in 10.0 mi NNW 17.3 mph 24.2 mph N/A   Overcast
6:54 PM 34.9 °F 24.9 °F 25.7 °F 69% 30.07 in 10.0 mi NNW 16.1 mph 27.6 mph N/A   Overcast
7:14 PM 34.0 °F 23.8 °F 25.2 °F 70% 30.08 in 10.0 mi NNW 16.1 mph 24.2 mph N/A   Overcast
7:35 PM 33.6 °F 22.6 °F 23.2 °F 66% 30.09 in 10.0 mi NNW 18.4 mph 24.2 mph N/A   Overcast
7:54 PM 33.1 °F 23.4 °F 22.8 °F 66% 30.10 in 10.0 mi NNW 13.8 mph 25.3 mph N/A   Overcast
8:14 PM 32.0 °F 20.5 °F 21.2 °F 64% 30.12 in 10.0 mi NW 18.4 mph 26.5 mph N/A   Overcast
8:35 PM 32.0 °F 20.1 °F 20.8 °F 63% 30.13 in 10.0 mi NW 19.6 mph 27.6 mph N/A   Overcast
8:54 PM 31.8 °F 19.3 °F 19.8 °F 61% 30.14 in 10.0 mi NW 21.9 mph 31.1 mph N/A   Overcast
9:15 PM 30.6 °F 17.9 °F 18.0 °F 60% 30.15 in 10.0 mi NW 20.7 mph 31.1 mph N/A   Mostly Cloudy
9:35 PM 30.4 °F 17.7 °F 17.8 °F 60% 30.16 in 10.0 mi WNW 20.7 mph 29.9 mph N/A   Mostly Cloudy
9:55 PM 30.7 °F 19.6 °F 18.1 °F 60% 30.16 in 10.0 mi NW 16.1 mph 29.9 mph N/A   Overcast
10:14 PM 30.6 °F 20.2 °F 18.3 °F 60% 30.17 in 10.0 mi NW 13.8 mph 23.0 mph N/A   Overcast
10:35 PM 30.4 °F 19.1 °F 18.7 °F 62% 30.17 in 10.0 mi NW 16.1 mph 28.8 mph N/A   Overcast
10:54 PM 30.4 °F 18.0 °F 17.4 °F 59% 30.17 in 10.0 mi NW 19.6 mph 28.8 mph N/A   Overcast
11:15 PM 30.7 °F 18.1 °F 19.2 °F 62% 30.18 in 7.0 mi NW 20.7 mph 25.3 mph N/A   Overcast
11:34 PM 30.7 °F 18.1 °F 18.9 °F 61% 30.18 in 10.0 mi NW 20.7 mph 31.1 mph N/A   Overcast
11:55 PM 30.2 °F 18.1 °F 19.0 °F 63% 30.19 in 10.0 mi WNW 18.4 mph 25.3 mph N/A   Mostly Cloudy